[Date Prev][Date Next][Thread Prev][Thread Next] - [Date Index][Thread Index][Author Index]
2 Line ISS Keps 10-9
- Subject: [sarex] 2 Line ISS Keps 10-9
- From: "Dave Larsen PhD" <doc@xxxxxxxxxxx>
- Date: Wed, 9 Oct 2002 01:10:45 -0700
ISS
1 25544U 98067A 02281.80516289 .00056770 00000-0 65136-3 0 2321
2 25544 51.6355 202.3848 0017245 349.5284 124.9128 15.61330522221750
----
Via the sarex mailing list at AMSAT.ORG courtesy of AMSAT-NA.
To unsubscribe, send "unsubscribe sarex" to Majordomo@amsat.org
AMSAT Home